Regional Weather Roundup
Issued by NWS Jackson, KY

Home | Current Version | Previous Version | Text Only | Print | Product List | Glossary On
Versions: 1 2 3 4 5 6 7 8 9 10 11 12 13 14 15 16 17 18 19 20 21 22 23 24 25 26 27 28 29 30 31 32 33 34 35 36 37 38 39 40 41 42 43 44 45 46 47 48 49 50
000
ASUS43 KJKL 011410
RWRJKL

EAST KENTUCKY HOURLY WEATHER ROUNDUP
NATIONAL WEATHER SERVICE JACKSON KY
1000 AM EDT SAT AUG 01 2015

NOTE: "FAIR" INDICATES FEW OR NO CLOUDS BELOW 12,000 FEET WITH
NO SIGNIFICANT WEATHER AND/OR OBSTRUCTIONS TO VISIBILITY.

* THESE REPORTS ARE NOT UNDER NWS QUALITY CONTROL AND MAY NOT
  REPORT WEATHER SUCH AS PRECIPITATION AND FOG.

KYZ079-080-083-085-087-088-110-112-115-119-120-011500
...EASTERN KENTUCKY...

CITY           SKY/WX    TMP DP  RH WIND       PRES   REMARKS
JACKSON        SUNNY     74  63  68 VRB3      30.05R
LONDON         SUNNY     75  63  66 SW3       30.06S
SOMERSET*      SUNNY     73  64  73 CALM      30.06F
MONTICELLO*    SUNNY     77  68  73 CALM      30.08F
WILLIAMSBURG*  SUNNY     72  66  83 CALM      30.07S
MIDDLESBORO*   MOSUNNY   65  64  95 CALM      30.08F
HAZARD APT*    SUNNY     75  64  69 W3        30.06R
BLACK MTN*       N/A     68  57  68 N2          N/A
PIKEVILLE APT* SUNNY     72  64  78 SW3       30.05R
BIG SANDY*     MOSUNNY   74  64  71 W5        30.04R
MOREHEAD APT*  SUNNY     73  63  68 CALM      30.05S
$$

KYZ035-036-041-042-044-050-067-078-099-011500
...CENTRAL KENTUCKY...

CITY           SKY/WX    TMP DP  RH WIND       PRES   REMARKS
MT STERLING*   SUNNY     73  64  73 CALM      30.05S
FLEMING/MASON* SUNNY     73  64  73 CALM      30.04R
DANVILLE*      SUNNY     77  61  57 N3        30.06S
RICHMOND*      SUNNY     75  63  64 W3        30.04S
LEXINGTON      MOSUNNY   76  64  66 W5        30.04R
FRANKFORT      MOSUNNY   75  62  64 NW3       30.02S
$$

KYZ091>093-OHZ055-061-077-WVZ005-015-034-035-042-011500
...SOUTHERN OHIO/WEST VIRGINIA...

CITY           SKY/WX    TMP DP  RH WIND       PRES   REMARKS
COVINGTON      MOSUNNY   75  61  61 CALM      30.02R
COLUMBUS       MOSUNNY   76  56  49 NW3       29.98S
DAYTON         MOSUNNY   73  60  63 NW7       30.02S
WILMINGTON     SUNNY     74  56  53 NW9       30.01S
HUNTINGTON     SUNNY     75  64  68 CALM      30.01R
CHARLESTON     MOSUNNY   75  61  61 CALM      30.00S
PINEVILLE*     SUNNY     72  64  76 MISG      30.10S
BECKLEY        SUNNY     71  59  65 W6        30.07R
BLUEFIELD      SUNNY     72  58  61 W8        30.10S
$$

VAZ002-007-008-TNZ017-027-036-066-071-011500
...SOUTHWEST VIRGINIA/EAST TENNESSEE...

CITY           SKY/WX    TMP DP  RH WIND       PRES   REMARKS
WISE*          SUNNY     75  54  46 N5        30.12S
ABINGDON*      SUNNY     73  61  65 W5        30.09S
BRISTOL        SUNNY     72  61  68 CALM      30.07S
KNOXVILLE      MOSUNNY   76  65  68 E3        30.04F
OAK RIDGE      SUNNY     77  66  68 CALM      30.06F
CROSSVILLE     SUNNY     76  64  66 CALM      30.11S
NASHVILLE      SUNNY     81  66  60 N5        30.06S
$$

...KEY TO REMARKS...
VSB - VISIBILITY IN MILES
WCI - WIND CHILL INDEX
HX  - HEAT INDEX

$$



USA.gov is the U.S. government's official web portal to all federal, state and local government web resources and services.